Temp
-5 -5 -4 -4 -4 -4 -4 -4 -4 -4 -4 -4 -4 -4 -4 -4 -4 -4 -4 -4 -4 -4 -4 -4 -4 -4 -4 -4 -4 -4 -4 -4 -4 -5 -5 -4 -5 -5 -5 -5 -6 -6 -6 -6 -6 -6 -5
-5 -5 -5 -4 -4 -4 -4 -4 -4 -4 -4 -4 -4 -4 -4 -4 -4 -4 -4 -4 -4 -4 -4 -4 -4 -4 -4 -4 -4 -4 -4 -4 -4 -5 -5 -5 -5 -5 -5 -5 -5 -6 -6 -6 -6 -6 -6
-5 -5 -5 -5 -5 -4 -4 -4 -4 -4 -4 -4 -4 -4 -4 -4 -4 -4 -4 -4 -4 -4 -4 -4 -4 -4 -4 -4 -4 -4 -4 -4 -4 -5 -5 -5 -5 -5 -5 -5 -5 -5 -6 -5 -5 -6 -6
-5 -5 -5 -5 -5 -5 -5 -4 -4 -4 -4 -4 -4 -4 -4 -4 -4 -4 -4 -4 -4 -4 -4 -4 -4 -4 -4 -4 -4 -4 -4 -4 -4 -4 -5 -5 -5 -5 -5 -5 -5 -5 -5 -5 -5 -5 -6
-6 -5 -5 -5 -5 -5 -5 -5 -5 -4 -4 -4 -4 -4 -4 -4 -4 -4 -4 -4 -4 -4 -4 -4 -4 -4 -4 -4 -4 -4 -4 -4 -4 -4 -5 -5 -6 -6 -6 -6 -8 -6 -6 -5 -6 -6 -6
-6 -6 -5 -5 -5 -5 -5 -5 -5 -5 -5 -4 -4 -4 -4 -4 -4 -4 -4 -4 -4 -4 -4 -4 -4 -4 -5 -5 -4 -5 -4 -4 -4 -4 -4 -5 -6 -6 -6 -6 -8 -7 -7 -7 -6 -7 -6
-6 -5 -5 -5 -5 -5 -5 -5 -5 -5 -4 -4 -4 -4 -4 -4 -4 -4 -4 -4 -4 -4 -5 -5 -5 -5 -5 -5 -5 -5 -5 -5 -5 -5 -5 -5 -5 -6 -7 -7 -9 -8 -7 -7 -8 -6 -7
-6 -5 -5 -5 -5 -5 -5 -5 -4 -4 -4 -4 -4 -4 -4 -4 -5 -5 -5 -5 -5 -4 -5 -5 -5 -5 -5 -5 -5 -5 -5 -5 -5 -5 -5 -5 -6 -6 -7 -9 -8 -7 -8 -8 -8 -7 -7
-5 -5 -5 -5 -5 -5 -5 -5 -5 -5 -5 -4 -4 -4 -4 -4 -4 -4 -4 -4 -4 -4 -5 -5 -5 -5 -5 -5 -5 -5 -5 -5 -5 -5 -5 -5 -6 -6 -6 -7 -7 -7 -9 -8 -9 -7 -7
-6 -6 -5 -5 -5 -5 -5 -5 -5 -5 -5 -4 -4 -4 -4 -4 -4 -4 -4 -4 -4 -4 -4 -4 -4 -5 -5 -6 -6 -6 -6 -6 -6 -6 -6 -6 -6 -6 -7 -7 -8 -8 -9 -9 -8 -7 -9
-6 -6 -7 -6 -6 -6 -6 -6 -5 -5 -5 -5 -4 -4 -4 -4 -4 -4 -4 -4 -4 -4 -5 -4 -4 -5 -5 -6 -5 -6 -6 -6 -6 -6 -6 -6 -6 -6 -6 -7 -8 -9 -10 -10 -10 -8 -9
-7 -7 -7 -6 -6 -6 -6 -6 -5 -5 -5 -5 -5 -4 -4 -4 -4 -4 -4 -4 -4 -5 -6 -5 -5 -5 -5 -6 -6 -6 -7 -7 -7 -7 -7 -7 -6 -6 -7 -7 -8 -8 -10 -10 -10 -10 -9
-7 -7 -7 -7 -7 -6 -6 -6 -5 -5 -5 -5 -5 -5 -5 -5 -5 -5 -5 -5 -5 -5 -5 -5 -6 -6 -6 -6 -7 -7 -7 -7 -7 -7 -7 -7 -7 -7 -7 -7 -8 -8 -9 -10 -9 -9 -8
-7 -7 -7 -7 -6 -6 -6 -6 -6 -5 -5 -5 -5 -5 -5 -5 -5 -5 -6 -6 -6 -6 -7 -5 -7 -7 -7 -7 -7 -7 -7 -8 -8 -8 -8 -8 -8 -7 -7 -7 -8 -8 -9 -9 -8 -8 -7
-7 -7 -7 -7 -7 -6 -6 -6 -6 -6 -6 -6 -6 -5 -6 -6 -6 -6 -6 -6 -6 -6 -6 -7 -7 -8 -8 -8 -9 -8 -8 -8 -8 -8 -8 -10 -10 -10 -7 -7 -8 -10 -9 -9 -9 -9 -8
-8 -7 -7 -7 -7 -7 -7 -6 -6 -6 -6 -6 -6 -6 -7 -7 -7 -7 -7 -7 -7 -7 -7 -7 -8 -8 -8 -11 -11 -11 -11 -9 -9 -9 -9 -9 -10 -11 -9 -8 -8 -9 -10 -10 -9 -9 -9
-8 -7 -7 -7 -7 -7 -7 -7 -7 -7 -7 -7 -7 -7 -7 -7 -7 -7 -7 -7 -7 -7 -7 -7 -8 -8 -8 -10 -11 -12 -11 -11 -11 -11 -9 -9 -10 -10 -11 -9 -10 -9 -9 -10 -9 -9 -8
-8 -8 -8 -7 -7 -7 -7 -7 -7 -7 -7 -7 -7 -7 -7 -7 -7 -7 -7 -7 -7 -7 -7 -8 -8 -8 -8 -9 -10 -10 -12 -12 -12 -11 -12 -10 -11 -11 -10 -11 -10 -10 -10 -10 -9 -9 -9
-8 -8 -8 -8 -8 -8 -8 -8 -8 -7 -7 -7 -7 -7 -7 -8 -8 -7 -7 -8 -7 -7 -7 -8 -8 -8 -8 -9 -9 -10 -12 -12 -12 -12 -11 -12 -10 -11 -11 -10 -11 -11 -10 -10 -10 -9 -10
-8 -8 -8 -8 -8 -8 -8 -8 -8 -8 -8 -8 -8 -8 -8 -8 -8 -8 -8 -8 -8 -8 -8 -8 -9 -9 -9 -9 -10 -10 -11 -13 -11 -11 -11 -11 -11 -11 -10 -10 -10 -11 -10 -10 -10 -10 -9
-8 -8 -8 -8 -8 -8 -8 -8 -8 -8 -8 -8 -8 -8 -9 -9 -8 -9 -9 -9 -9 -9 -8 -9 -9 -10 -10 -10 -10 -11 -11 -12 -12 -12 -12 -12 -11 -12 -11 -11 -10 -10 -11 -11 -10 -10 -10
-8 -8 -8 -8 -8 -8 -8 -8 -8 -8 -8 -9 -9 -9 -9 -9 -10 -10 -10 -10 -10 -10 -10 -9 -10 -10 -10 -10 -11 -12 -14 -12 -13 -12 -12 -12 -12 -12 -12 -11 -11 -10 -10 -10 -10 -10 -10
-9 -9 -9 -8 -8 -8 -8 -8 -8 -8 -8 -9 -9 -9 -10 -10 -11 -11 -11 -10 -10 -10 -11 -11 -11 -11 -11 -11 -11 -11 -11 -11 -11 -12 -12 -12 -13 -12 -12 -11 -10 -11 -10 -10 -11 -11 -11
-9 -9 -9 -9 -8 -8 -9 -9 -9 -9 -9 -10 -10 -11 -11 -11 -11 -12 -12 -11 -12 -12 -12 -12 -12 -12 -12 -11 -12 -12 -12 -12 -12 -12 -12 -13 -13 -12 -12 -11 -11 -11 -11 -11 -11 -11 -11
-9 -9 -9 -9 -9 -9 -9 -9 -9 -9 -10 -11 -11 -12 -12 -12 -12 -12 -12 -12 -13 -13 -13 -13 -13 -12 -13 -12 -12 -13 -12 -12 -12 -12 -13 -12 -12 -13 -12 -12 -11 -11 -10 -10 -11 -11 -12
-10 -10 -9 -9 -9 -9 -9 -10 -10 -11 -11 -12 -13 -13 -13 -13 -13 -13 -13 -13 -13 -14 -14 -14 -13 -13 -13 -13 -13 -13 -13 -14 -13 -13 -13 -13 -13 -12 -13 -12 -11 -10 -11 -11 -11 -10 -10
-9 -10 -10 -10 -10 -10 -10 -11 -12 -12 -13 -13 -13 -13 -13 -14 -14 -14 -14 -14 -14 -14 -14 -14 -14 -14 -14 -13 -14 -13 -13 -14 -14 -14 -14 -14 -12 -13 -12 -11 -10 -11 -10 -12 -11 -11 -11
-10 -10 -10 -10 -10 -11 -11 -12 -13 -13 -13 -13 -14 -14 -14 -14 -14 -14 -14 -14 -15 -15 -15 -14 -15 -14 -14 -14 -14 -14 -13 -14 -13 -13 -13 -13 -13 -13 -12 -12 -12 -11 -11 -12 -12 -11 -11
-10 -10 -11 -11 -11 -12 -12 -13 -13 -14 -14 -14 -14 -15 -15 -15 -15 -15 -15 -15 -15 -15 -15 -15 -15 -15 -14 -14 -14 -14 -14 -14 -13 -13 -12 -12 -12 -13 -12 -12 -12 -12 -12 -12 -11 -11 -11
Height
5893 5893 5893 5893 5894 5894 5895 5895 5896 5896 5896 5896 5896 5896 5896 5895 5895 5895 5895 5895 5895 5895 5894 5894 5893 5892 5892 5891 5890 5888 5888 5887 5887 5888 5889 5889 5889 5889 5889 5890 5890 5890 5889 5888 5887 5886 5886
5894 5894 5894 5894 5895 5895 5896 5896 5896 5897 5896 5896 5896 5896 5895 5895 5895 5895 5895 5895 5894 5894 5894 5893 5893 5892 5891 5891 5890 5888 5888 5886 5886 5886 5887 5888 5889 5888 5889 5890 5891 5890 5889 5887 5887 5887 5887
5894 5894 5894 5895 5895 5895 5896 5896 5896 5896 5896 5896 5896 5895 5895 5895 5894 5894 5894 5893 5893 5893 5892 5892 5892 5891 5890 5890 5889 5888 5887 5886 5885 5884 5885 5885 5887 5888 5888 5889 5889 5890 5890 5890 5888 5888 5888
5893 5894 5893 5894 5894 5894 5895 5894 5894 5894 5894 5894 5894 5894 5893 5893 5892 5892 5892 5891 5891 5891 5890 5890 5890 5889 5889 5888 5887 5887 5886 5885 5884 5883 5882 5883 5884 5886 5888 5889 5889 5891 5888 5876 5887 5888 5888
5893 5893 5892 5892 5892 5892 5892 5892 5892 5891 5891 5891 5891 5890 5890 5890 5889 5889 5888 5888 5888 5887 5887 5886 5886 5886 5886 5886 5885 5885 5884 5884 5883 5882 5881 5880 5881 5884 5886 5887 5889 5890 5890 5886 5880 5888 5888
5892 5891 5891 5890 5890 5889 5889 5889 5888 5887 5887 5886 5886 5886 5885 5885 5884 5884 5883 5883 5882 5882 5882 5881 5882 5882 5882 5882 5881 5881 5881 5881 5880 5880 5879 5878 5879 5880 5883 5885 5893 5891 5889 5889 5887 5878 5888
5890 5889 5888 5887 5886 5886 5885 5884 5884 5883 5882 5881 5881 5881 5880 5879 5879 5878 5878 5877 5877 5877 5875 5876 5877 5876 5876 5877 5877 5877 5877 5878 5877 5877 5877 5876 5876 5878 5880 5883 5887 5888 5887 5887 5885 5885 5886
5886 5885 5884 5883 5882 5881 5880 5879 5878 5877 5876 5875 5875 5874 5873 5872 5871 5871 5870 5869 5869 5869 5869 5869 5870 5869 5870 5871 5872 5873 5873 5874 5874 5874 5873 5874 5874 5874 5876 5878 5881 5882 5886 5885 5883 5883 5885
5882 5881 5879 5878 5877 5876 5875 5874 5873 5872 5871 5870 5869 5868 5868 5867 5865 5864 5863 5863 5862 5860 5861 5860 5861 5862 5863 5864 5864 5866 5868 5868 5869 5870 5870 5870 5871 5871 5872 5874 5876 5879 5883 5887 5885 5881 5883
5877 5875 5873 5873 5872 5871 5870 5869 5869 5868 5867 5866 5865 5864 5863 5863 5862 5859 5858 5857 5856 5855 5855 5854 5854 5856 5857 5857 5857 5858 5861 5863 5864 5865 5866 5867 5866 5868 5869 5871 5873 5875 5877 5880 5877 5879 5884
5872 5870 5868 5868 5867 5867 5866 5865 5865 5864 5863 5863 5861 5860 5860 5858 5857 5856 5855 5853 5851 5851 5851 5851 5851 5850 5850 5852 5851 5854 5854 5856 5858 5860 5862 5863 5862 5863 5865 5867 5868 5872 5876 5879 5876 5876 5878
5868 5866 5865 5864 5864 5863 5862 5862 5861 5860 5859 5859 5857 5855 5855 5854 5852 5851 5849 5848 5847 5848 5844 5845 5844 5844 5844 5845 5845 5846 5849 5851 5853 5854 5856 5857 5857 5859 5861 5862 5864 5866 5868 5870 5872 5876 5879
5865 5864 5862 5861 5860 5859 5858 5857 5856 5855 5855 5854 5852 5850 5849 5848 5848 5846 5845 5844 5844 5841 5841 5838 5838 5838 5838 5839 5839 5842 5843 5845 5848 5849 5851 5852 5853 5854 5856 5858 5860 5861 5864 5869 5875 5877 5879
5862 5860 5859 5857 5855 5854 5853 5852 5851 5849 5848 5848 5846 5844 5842 5841 5840 5839 5838 5838 5837 5836 5834 5833 5834 5832 5833 5832 5833 5835 5837 5839 5842 5845 5846 5847 5849 5850 5851 5854 5856 5857 5861 5867 5872 5876 5878
5857 5855 5853 5852 5850 5848 5847 5845 5844 5842 5841 5840 5838 5836 5834 5832 5831 5830 5830 5830 5829 5829 5828 5827 5827 5827 5828 5828 5829 5829 5830 5833 5836 5839 5842 5846 5846 5844 5845 5848 5851 5855 5854 5864 5869 5865 5869
5852 5850 5848 5846 5844 5842 5840 5838 5837 5835 5833 5832 5830 5829 5826 5824 5823 5822 5822 5822 5820 5822 5821 5820 5821 5821 5823 5824 5824 5825 5827 5829 5831 5833 5835 5837 5839 5841 5840 5842 5846 5849 5857 5857 5862 5865 5864
5847 5845 5843 5840 5838 5836 5833 5831 5829 5828 5826 5824 5822 5820 5818 5817 5816 5816 5815 5813 5812 5813 5814 5814 5814 5814 5817 5820 5822 5821 5824 5826 5825 5828 5829 5831 5834 5838 5837 5836 5842 5844 5846 5851 5861 5864 5866
5841 5839 5836 5834 5832 5830 5828 5825 5823 5820 5819 5816 5814 5812 5811 5809 5809 5807 5806 5805 5804 5803 5806 5805 5805 5805 5805 5808 5809 5812 5819 5822 5822 5821 5824 5825 5828 5831 5835 5835 5836 5843 5844 5850 5854 5857 5859
5834 5832 5830 5828 5825 5823 5821 5819 5816 5813 5811 5808 5807 5804 5803 5802 5800 5798 5796 5797 5795 5794 5793 5795 5796 5796 5795 5797 5799 5803 5809 5816 5807 5813 5817 5820 5820 5827 5831 5835 5834 5835 5840 5844 5850 5854 5855
5829 5826 5824 5821 5818 5815 5813 5810 5807 5804 5801 5799 5797 5794 5793 5791 5790 5789 5785 5786 5783 5783 5783 5783 5785 5785 5786 5787 5789 5793 5796 5801 5797 5805 5804 5810 5815 5819 5828 5833 5833 5829 5830 5837 5844 5845 5850
5821 5819 5816 5813 5811 5807 5803 5800 5797 5794 5791 5788 5786 5783 5780 5778 5777 5777 5775 5774 5773 5772 5772 5771 5774 5775 5776 5776 5778 5781 5786 5789 5789 5796 5800 5803 5806 5813 5817 5820 5820 5827 5825 5829 5835 5841 5842
5813 5810 5807 5804 5801 5798 5793 5790 5787 5783 5780 5776 5774 5772 5770 5766 5765 5763 5762 5761 5761 5761 5760 5761 5762 5763 5763 5765 5769 5771 5776 5778 5781 5787 5790 5796 5798 5805 5810 5815 5816 5817 5824 5827 5830 5833 5836
5803 5800 5797 5794 5791 5787 5783 5779 5775 5771 5767 5763 5761 5758 5755 5754 5752 5750 5749 5747 5748 5748 5749 5749 5749 5750 5752 5754 5753 5757 5758 5762 5766 5773 5779 5787 5793 5800 5803 5809 5811 5814 5819 5821 5824 5826 5829
5793 5790 5787 5783 5779 5775 5771 5767 5762 5758 5755 5751 5748 5744 5743 5741 5738 5737 5736 5736 5735 5735 5736 5736 5738 5738 5741 5740 5744 5747 5749 5752 5757 5764 5773 5780 5786 5791 5797 5804 5795 5809 5814 5816 5818 5820 5822
5782 5779 5776 5772 5767 5762 5758 5753 5749 5745 5741 5737 5734 5732 5730 5729 5726 5725 5724 5723 5723 5724 5726 5725 5726 5727 5728 5731 5733 5735 5739 5741 5745 5752 5761 5770 5774 5782 5788 5791 5791 5803 5801 5806 5808 5811 5813
5771 5767 5764 5759 5754 5750 5745 5740 5736 5732 5728 5725 5722 5720 5718 5717 5714 5713 5712 5712 5712 5714 5716 5716 5716 5716 5719 5721 5722 5725 5728 5732 5737 5743 5752 5759 5763 5770 5779 5782 5785 5786 5795 5798 5800 5802 5804
5759 5755 5751 5746 5741 5736 5732 5727 5723 5720 5717 5714 5711 5709 5707 5705 5702 5702 5701 5702 5703 5704 5705 5705 5706 5709 5710 5712 5713 5716 5719 5725 5731 5737 5741 5747 5751 5758 5771 5772 5770 5784 5780 5789 5796 5801 5798
5747 5742 5737 5733 5728 5724 5720 5716 5712 5709 5706 5704 5701 5698 5698 5696 5694 5694 5693 5694 5694 5695 5696 5696 5700 5701 5702 5704 5707 5708 5710 5716 5722 5730 5735 5741 5745 5749 5762 5769 5777 5766 5777 5788 5787 5789 5791
5734 5729 5725 5721 5716 5712 5709 5705 5702 5700 5697 5694 5693 5691 5690 5689 5687 5686 5686 5686 5687 5688 5689 5690 5692 5694 5695 5698 5699 5701 5705 5709 5715 5721 5726 5730 5738 5748 5753 5762 5768 5766 5774 5779 5781 5783 5785
Wind_Speed
4 5 7 8 8 8 7 6 5 4 3 3 3 3 3 2 3 3 3 4 4 5 5 6 7 7 8 8 8 8 6 7 8 7 5 3 2 1 2 2 4 3 4 2 5 5 2
2 3 4 5 5 5 4 2 1 1 1 1 0 1 1 1 1 3 4 5 5 6 6 6 6 7 7 8 9 8 8 7 7 8 8 6 5 5 4 3 3 9 4 1 3 6 3
1 1 2 3 3 2 3 3 4 5 5 5 5 5 6 6 6 7 7 7 7 7 8 8 8 9 8 9 8 8 9 9 8 6 8 11 8 8 7 5 4 3 3 5 5 4 5
2 3 3 4 5 6 7 9 10 10 10 11 11 10 11 11 11 12 12 13 13 14 13 13 12 11 11 10 9 8 8 8 8 6 6 11 12 10 9 8 7 4 5 11 9 6 5
2 3 5 6 8 9 11 12 14 15 16 16 17 17 17 17 18 19 19 20 20 20 19 18 17 15 13 13 12 10 10 9 8 7 6 11 14 12 11 10 7 6 6 13 10 10 6
6 6 7 8 10 11 12 13 14 15 16 18 19 20 22 23 24 25 25 26 25 25 24 23 20 19 16 15 15 13 12 11 10 9 7 9 12 14 15 13 11 17 16 9 15 3 12
12 12 13 15 16 17 19 20 20 21 21 22 23 23 23 24 25 26 26 27 27 26 26 25 22 23 20 19 18 17 17 15 13 12 11 9 10 12 15 16 19 22 13 19 14 16 14
18 18 18 18 19 20 21 22 22 22 23 24 24 24 24 25 26 27 29 30 32 32 32 30 29 28 26 24 23 22 20 18 16 15 14 12 10 14 18 20 25 26 22 15 22 19 14
21 22 22 22 22 22 21 19 17 16 16 15 15 14 15 16 18 20 21 22 24 26 26 29 28 29 29 27 27 24 22 21 18 17 16 15 15 16 17 19 20 21 14 16 17 19 14
21 22 23 22 21 19 17 16 11 10 11 11 12 13 13 15 17 17 18 18 19 20 22 25 25 23 23 25 27 27 23 22 20 18 18 17 18 15 16 15 17 18 17 20 20 17 5
17 18 17 16 16 16 15 13 13 13 12 13 15 16 16 17 16 16 16 17 18 17 17 20 16 18 21 22 27 23 24 23 20 19 19 18 19 19 16 15 18 17 17 15 22 20 15
15 16 16 16 15 15 15 16 16 17 16 16 17 19 19 17 16 17 18 17 17 18 20 21 19 19 20 21 22 24 23 22 22 20 20 20 21 18 15 17 18 19 23 23 18 13 15
14 15 15 16 17 17 18 18 19 21 20 20 22 23 23 20 19 20 21 20 19 18 21 26 21 20 20 21 24 21 22 21 21 20 20 20 20 18 18 18 19 23 21 16 14 16 15
19 19 19 18 18 19 20 22 24 25 26 25 26 27 27 27 25 25 24 24 22 23 24 23 21 23 21 23 23 22 23 22 20 18 16 18 21 19 20 19 18 22 21 18 16 9 14
21 21 22 23 23 25 26 27 28 29 30 29 29 30 31 30 29 28 27 26 26 25 26 23 23 22 23 22 21 23 23 21 21 19 20 13 17 20 20 21 23 18 24 22 20 18 18
19 19 20 21 23 25 26 27 28 29 29 28 28 28 28 27 25 24 24 23 26 21 22 23 23 25 21 20 24 22 21 20 21 20 19 19 20 16 22 21 24 24 17 22 23 18 19
23 24 24 25 25 24 24 25 25 24 26 29 29 28 28 26 26 25 26 28 28 25 24 25 26 28 23 24 23 23 21 20 19 21 21 21 20 16 21 24 22 25 25 23 19 22 21
26 26 26 25 24 24 24 26 26 27 28 29 28 28 26 26 27 28 28 30 30 30 24 27 28 29 31 31 37 35 22 19 22 20 20 21 17 17 21 21 20 19 19 18 24 22 19
25 25 24 24 25 24 25 26 28 29 30 31 31 33 31 30 30 31 31 29 32 32 32 28 28 31 34 34 37 33 26 26 38 34 21 19 22 19 18 20 22 27 25 21 19 17 19
25 25 27 27 28 28 30 34 34 34 35 35 35 35 34 34 34 33 35 32 35 34 33 32 30 32 33 35 35 35 38 35 46 33 37 29 21 22 20 19 19 23 27 25 25 25 20
29 30 30 31 30 34 36 36 35 35 36 37 36 37 37 37 36 34 36 35 35 35 33 35 31 32 32 36 37 37 39 40 43 40 36 33 31 26 27 26 24 19 21 25 24 24 19
30 31 33 34 35 37 39 40 39 40 40 39 39 38 37 37 36 36 36 35 36 34 36 33 34 34 37 36 35 36 31 44 41 44 44 39 34 26 23 21 24 15 17 22 25 24 25
36 36 36 35 38 40 41 41 40 41 40 39 39 40 39 39 38 38 36 38 35 37 35 35 36 36 35 35 39 40 45 46 52 49 48 44 34 29 27 24 23 26 20 20 21 21 23
42 43 42 43 43 46 45 43 42 41 41 41 41 40 40 39 39 38 37 37 36 37 35 36 35 36 33 36 33 34 36 40 41 45 47 45 42 38 28 28 34 25 23 25 23 19 18
41 42 41 43 47 48 46 45 45 45 43 42 41 39 40 38 38 36 35 35 35 34 32 34 34 34 34 33 32 30 32 36 39 44 49 52 50 44 37 35 29 24 35 27 22 25 22
45 42 45 47 47 47 46 44 43 41 40 39 37 35 35 34 37 31 32 31 30 30 29 29 32 32 32 30 30 28 30 28 32 39 47 52 56 49 39 42 29 25 16 26 31 26 23
43 45 45 46 46 45 44 41 38 37 36 34 33 33 32 32 33 29 28 27 27 26 24 27 28 27 27 25 27 27 27 27 27 30 45 50 56 54 47 33 19 24 37 19 22 18 17
44 45 46 46 44 43 40 38 35 33 32 33 31 28 25 24 24 22 22 23 23 22 23 26 22 23 22 23 23 22 25 25 32 30 34 47 52 51 41 40 29 29 27 13 22 18 16
46 46 45 43 40 38 36 33 31 31 32 29 24 23 22 23 25 24 23 22 21 20 21 22 21 19 17 17 20 23 21 26 31 39 33 36 49 43 46 42 32 46 22 29 22 18 16
Wind_Direction
105 108 107 110 116 121 125 125 119 92 68 69 67 80 89 80 81 82 56 27 26 24 25 21 22 20 17 13 12 11 346 282 263 258 273 271 249 219 215 250 15 328 280 327 356 332 89
123 122 126 127 129 131 134 147 204 294 338 348 330 320 327 294 295 304 314 323 330 330 332 332 335 343 350 354 358 359 6 352 294 263 250 267 248 221 218 225 154 266 240 282 9 331 343
165 169 168 174 188 204 236 257 268 275 275 277 275 275 280 280 282 287 293 299 305 310 313 313 312 311 312 321 331 339 344 348 344 291 250 244 238 238 226 223 246 264 276 306 327 337 330
272 271 267 268 263 265 264 268 270 271 270 272 276 275 275 276 275 278 281 286 290 292 294 297 300 299 296 295 302 307 319 331 338 332 258 244 239 231 236 242 234 251 248 153 293 313 333
338 295 285 281 280 279 279 279 278 276 275 274 274 274 274 275 277 278 280 281 282 284 285 287 286 285 285 286 286 289 295 303 314 319 280 249 238 228 231 241 243 234 221 251 338 294 289
310 304 304 302 298 296 293 288 285 283 281 278 275 273 272 272 272 273 274 276 278 279 281 281 280 279 280 278 276 278 279 282 285 294 293 268 241 229 225 228 208 232 254 232 260 183 264
300 300 298 297 296 292 290 288 287 287 285 282 280 278 276 274 273 272 273 274 274 273 274 274 274 275 272 270 271 274 278 277 274 278 283 278 249 234 223 218 205 215 234 246 247 249 261
296 293 292 293 294 294 291 288 286 285 284 282 281 279 278 278 276 274 274 273 272 273 272 272 271 270 268 267 266 267 271 271 270 270 273 272 259 233 224 223 215 229 234 239 247 255 260
292 289 289 291 293 295 293 287 285 287 287 284 284 285 286 284 281 276 275 276 276 275 273 271 269 269 269 268 266 263 264 265 262 263 266 266 257 251 242 240 237 234 221 245 248 256 253
293 290 284 282 284 288 290 286 279 292 299 291 286 286 289 288 283 283 281 280 276 277 273 268 269 268 270 262 263 264 260 260 257 257 259 260 261 261 252 242 238 231 236 214 243 253 256
301 304 296 281 279 284 284 273 274 289 293 298 296 292 290 286 283 277 278 279 278 277 273 279 276 269 266 263 263 259 256 256 256 254 254 256 251 260 251 235 231 225 214 243 259 247 245
305 302 295 288 275 278 281 283 282 285 291 291 292 291 290 286 285 282 281 275 271 272 267 277 276 271 269 265 261 260 255 252 252 252 248 249 250 250 251 238 230 223 228 232 242 256 256
303 302 298 291 281 279 284 286 288 286 287 293 294 294 293 293 287 284 279 273 270 271 274 273 274 268 264 264 263 259 254 248 248 248 250 245 249 243 237 239 229 225 226 229 239 246 252
295 293 292 293 288 288 290 292 292 291 292 294 293 293 292 291 286 281 275 271 270 269 269 274 268 269 265 265 258 261 253 251 248 242 240 253 255 252 243 237 239 228 221 217 222 233 246
295 295 293 291 288 287 285 285 284 285 286 287 288 287 286 285 283 281 279 276 271 268 269 269 265 261 262 255 254 262 260 254 252 242 239 241 257 254 241 230 226 239 223 214 226 231 254
303 301 301 302 298 295 292 291 289 289 291 292 292 290 287 286 285 283 282 277 272 272 268 265 263 260 251 256 243 238 249 252 251 250 237 233 239 235 251 232 227 206 235 218 221 240 246
298 301 304 303 301 302 300 297 296 294 293 294 295 291 287 285 283 281 283 279 277 276 268 265 262 257 257 221 244 241 235 241 246 232 238 230 239 236 231 238 224 224 217 218 217 226 237
299 300 303 303 301 305 306 305 304 301 299 297 297 292 288 287 284 283 281 280 279 276 268 265 260 260 256 242 236 223 220 240 236 230 227 235 235 230 229 231 225 224 229 216 215 229 227
302 301 305 305 304 304 305 304 302 300 299 298 296 293 290 287 285 285 280 282 278 274 273 263 259 256 255 248 248 243 223 214 234 234 227 227 226 224 213 241 218 219 220 225 223 229 236
300 302 305 304 304 301 302 301 298 297 296 297 295 294 290 287 284 281 281 280 276 271 269 266 259 254 253 255 252 243 230 220 232 233 230 231 217 215 217 231 251 249 230 211 215 228 232
296 298 298 297 297 300 303 306 302 295 296 296 293 289 286 285 280 279 278 278 275 270 265 264 259 256 251 249 245 243 239 229 241 231 230 233 228 219 211 240 205 227 239 215 216 221 228
294 296 297 299 301 304 304 302 301 300 297 296 294 289 285 279 280 277 275 273 270 266 263 265 260 255 253 252 248 238 242 234 234 225 224 225 232 226 221 228 243 217 221 220 222 222 226
292 296 295 300 304 307 308 305 302 301 297 293 290 287 283 280 277 274 272 269 268 264 262 260 257 258 256 255 248 247 242 241 233 224 224 221 223 227 227 219 234 227 213 219 223 234 227
291 296 297 295 301 306 307 305 301 298 294 289 286 284 282 282 277 276 273 273 266 262 260 258 256 257 255 254 254 249 243 242 240 234 223 221 224 225 215 226 218 225 221 224 225 230 232
293 296 298 300 302 305 305 303 301 298 293 288 286 286 286 285 282 281 278 274 270 264 256 254 255 256 258 258 255 250 245 239 234 225 219 220 224 215 219 225 220 206 224 227 217 226 236
296 296 299 302 303 303 303 302 299 294 290 290 291 290 288 285 282 281 277 273 269 263 256 253 252 254 256 258 257 248 241 239 228 226 218 220 225 224 219 220 230 189 228 234 229 242 244
299 299 300 302 302 302 302 300 295 293 293 293 294 293 289 284 281 275 272 271 266 262 256 255 250 253 254 252 251 246 238 215 215 223 217 218 225 231 211 206 216 226 231 199 227 226 234
301 301 302 303 303 301 300 298 297 294 294 297 296 292 288 282 278 276 275 273 270 261 254 256 250 249 251 249 248 241 232 218 211 190 225 222 225 232 224 205 194 234 220 209 211 215 216
302 303 302 301 299 300 297 296 297 298 298 295 292 289 284 280 277 275 272 270 266 261 254 250 246 238 235 235 234 227 221 213 215 196 215 212 221 229 233 194 212 220 203 226 225 228 232